Вернуться в каталог

STARLINK-4729

АктивенСвязьVLEO
NORAD 53804·PAYLOAD·🇺🇸 United States

Запущен Sep 11, 2022 с Cape Canaveral Space Force Station

Loading…

Ближайшие Пролёты (ближайшие 24 часа)

TLE

СвежийSource: CelesTrak SupGP

Эпоха: Sep 14, 2026, 21:31 UTC

1 53804C 22111AH  26257.89701389 -.00015333  00000+0 -45330-3 0  2575
2 53804  53.1580 117.5842 0001228  89.2060 301.8011 15.34379142    14

Отслеживайте STARLINK-4729 в реальном времени с AllMySat

Download on the App Store